Dewpoint
32 21 21 17 18 18 22 24 23 22 25 25 26 25 22 20 12 11 9 8 30 25 17 13 12 10 7 13 12 12 13 12 11 10 10 12 10 13 11 15 15 14 14 25 23 22 18 18 18 16 14 14 9 7 8 7 7 9 6 8 11 16 17 19 20 20 23 23 23 24 23 23 23 24 27 28 29 30 30 34 37 37 36 39 39 38
25 21 22 26 19 18 23 28 27 16 17 24 25 24 19 14 6 7 7 14 28 23 18 18 17 14 11 12 12 13 12 10 10 9 10 10 12 13 15 16 17 14 20 19 15 13 11 11 14 11 10 13 6 7 6 6 8 6 8 8 9 13 16 17 18 20 21 22 22 22 23 23 24 24 25 26 27 29 31 31 34 36 36 38 39 39
19 21 23 23 22 26 29 31 23 16 18 19 23 17 14 9 12 13 18 21 11 14 10 9 9 10 12 12 13 12 11 11 11 10 10 11 13 14 14 15 15 15 13 12 11 13 11 13 12 9 7 0 1 0 3 5 7 10 8 9 11 14 16 19 20 22 19 18 19 20 21 22 24 24 24 24 26 26 29 31 33 35 35 36 36 37
16 19 11 21 28 29 23 23 22 18 18 12 14 14 13 13 12 7 9 16 12 16 14 13 11 11 12 14 13 12 11 11 14 17 18 22 13 13 12 14 14 12 11 7 4 5 6 6 5 5 4 1 4 4 1 2 6 9 14 10 10 13 14 17 19 24 20 19 19 19 21 23 22 22 26 25 24 24 25 29 33 34 34 36 37 38
20 23 15 30 31 31 15 19 23 17 12 13 24 17 12 13 12 12 9 12 18 19 20 17 17 14 17 14 13 12 13 12 15 14 16 17 21 19 16 15 14 9 9 9 8 7 6 2 1 1 4 2 1 2 3 6 7 8 10 12 12 13 14 16 19 18 19 20 19 19 19 22 24 25 25 24 24 24 25 27 33 34 36 36 37 36
24 28 29 32 29 13 15 11 17 18 10 11 22 18 12 13 13 13 14 14 10 8 26 24 10 6 15 15 14 13 12 13 14 15 14 16 14 15 11 11 10 12 10 8 5 -1 -4 -3 1 2 1 2 1 1 2 4 8 9 10 11 12 14 15 16 18 19 20 19 18 17 17 17 18 18 19 20 21 24 24 24 25 28 29 35 36 37
23 27 27 28 30 16 15 12 19 19 13 11 16 16 15 13 15 16 15 15 11 8 10 24 9 9 11 8 14 13 13 13 14 15 15 13 12 11 10 10 6 2 1 2 1 1 0 -2 -3 -2 -3 -2 -3 -2 4 6 7 8 10 11 13 16 20 21 21 21 21 19 18 17 17 18 17 18 19 17 19 22 23 25 25 27 28 29 29 32
27 25 24 26 18 14 6 2 11 15 16 11 18 17 16 16 17 17 17 17 12 16 17 16 11 -1 -3 -5 15 14 14 14 14 15 16 13 11 9 9 11 9 6 1 1 -1 -4 -6 -5 -6 -6 -4 -5 -3 1 7 8 10 10 10 13 16 19 21 21 21 20 21 21 19 19 18 19 19 18 17 16 17 19 22 23 25 27 28 29 29 29
26 25 26 27 22 12 5 6 15 23 16 17 20 19 16 18 18 18 18 16 15 12 11 9 5 -5 -2 -4 17 15 13 13 14 16 16 12 10 10 11 11 9 8 5 2 -2 -5 -5 -5 -4 -2 -1 2 5 9 10 10 10 12 13 15 17 19 20 20 19 19 18 19 19 19 19 18 19 18 19 19 20 20 22 22 24 25 27 28 29 30
29 20 23 30 17 12 17 11 16 22 19 20 17 20 21 19 15 15 13 17 16 10 10 6 1 -1 0 3 3 16 15 14 15 14 12 10 10 9 8 6 5 5 6 4 -2 -4 -3 -4 -4 -0 4 6 8 11 14 13 13 13 14 16 18 20 21 20 17 17 18 19 20 19 19 19 18 18 18 18 18 18 19 19 21 22 26 29 30 31
28 35 34 32 21 22 16 12 19 21 23 25 26 17 12 11 7 3 9 3 8 4 2 2 2 3 2 4 13 15 18 14 15 12 10 10 6 5 6 5 6 4 4 2 -2 -2 -2 -3 -2 2 6 8 9 11 13 14 14 16 16 16 18 21 22 21 17 17 19 20 20 20 21 21 21 20 19 18 18 19 19 19 20 22 24 27 28 30
30 31 30 30 35 28 18 15 22 20 27 26 11 7 8 4 2 -0 5 5 2 -0 5 0 3 6 3 3 15 16 16 14 12 10 10 5 5 4 2 2 2 4 5 2 1 1 1 -0 -0 3 6 9 10 11 12 13 16 20 20 21 22 24 27 23 18 18 20 21 21 21 21 22 23 23 22 21 20 19 19 19 20 22 23 24 28 29
22 16 24 31 28 30 19 12 8 15 14 11 3 8 6 1 2 -3 1 -1 -0 -1 2 2 5 1 1 7 15 17 16 13 12 14 9 8 3 1 1 -0 2 2 2 3 1 0 0 0 2 5 6 8 12 13 12 15 21 21 22 23 23 23 24 22 17 18 21 22 22 23 21 21 23 24 24 23 22 22 22 21 20 20 22 25 27 28
11 24 25 24 27 22 19 0 -1 2 4 3 3 9 6 -0 -1 -3 -1 1 2 3 4 1 4 -1 1 3 14 13 14 12 11 11 10 3 -0 -2 -1 1 2 3 1 -0 -0 -1 -2 -0 1 5 8 11 12 12 15 21 22 23 24 24 24 25 23 17 20 20 20 22 23 23 22 22 22 23 24 24 24 22 22 23 23 23 24 24 25 25
9 8 18 18 10 22 16 9 12 12 12 3 12 8 7 4 -0 -1 1 1 3 4 2 1 2 2 0 16 16 13 15 13 11 12 7 1 -2 -1 -0 -1 -1 -0 -2 -2 -2 -2 -1 0 -0 5 10 12 12 12 21 22 23 23 22 22 20 17 15 17 20 22 22 22 22 22 22 22 22 22 23 25 28 26 25 25 25 25 24 24 23 24
15 9 23 23 20 18 19 24 25 20 16 10 13 15 9 8 8 6 6 7 5 -0 -1 1 -0 2 1 13 16 15 14 14 13 -0 -0 -3 -1 1 0 -1 -2 -2 -3 -3 -3 -1 -0 0 1 5 8 11 12 16 21 22 23 21 20 18 17 17 17 20 21 20 20 20 20 19 19 20 21 22 23 25 27 27 27 26 25 24 24 24 23 23
12 3 13 18 24 10 10 20 20 23 7 10 11 10 9 13 9 10 7 -1 -2 1 0 3 1 3 2 1 15 16 15 12 1 -4 -3 -4 -3 -0 -0 -2 -4 -3 -4 -4 -2 -2 -1 -0 1 6 8 11 15 19 21 21 20 19 18 18 19 19 19 21 20 19 19 19 19 20 20 19 19 20 23 24 26 27 28 29 29 27 25 24 24 23
15 14 18 19 19 19 17 23 23 25 20 11 7 10 18 16 14 6 -2 1 1 -1 0 2 2 2 1 -0 14 7 5 -3 -3 -4 -6 -5 -1 -0 1 -2 -3 -5 -5 -4 -2 -1 -0 1 3 3 10 15 18 18 18 18 16 17 20 19 18 19 20 18 19 17 16 16 17 18 19 19 18 20 23 25 26 28 28 28 27 26 25 24 24 23
20 16 15 19 15 23 27 22 19 20 25 9 9 18 8 5 7 3 2 -2 -2 -1 -2 -2 -1 1 3 4 6 3 -3 -5 -5 -5 -5 -3 1 -1 -4 -6 -6 -5 -3 -2 -1 0 3 3 4 4 11 15 16 17 17 16 14 18 19 19 19 20 18 18 17 13 13 15 18 20 20 20 21 24 24 24 24 24 25 26 27 26 24 23 22 22
21 17 17 18 9 10 17 15 5 4 22 22 22 14 17 7 9 5 2 5 4 -3 -3 -4 -1 -3 -2 6 3 -4 -4 -5 -6 -6 -5 -1 -1 -2 -5 -6 -6 -4 -3 -1 1 3 5 5 5 6 11 14 15 16 14 13 15 17 19 19 19 18 19 15 10 10 11 12 14 17 17 17 18 20 20 20 18 18 22 24 26 26 26 24 22 22
21 16 13 14 16 16 6 7 1 3 8 9 11 11 14 9 12 11 11 6 1 -2 -4 -5 -6 -3 2 2 -2 -1 -4 -6 -6 -4 -1 -1 -2 -5 -8 -7 -5 -4 -1 0 2 3 4 5 5 8 12 15 15 13 12 12 14 17 19 19 18 18 15 12 10 10 12 12 13 13 12 11 10 9 12 14 17 19 22 25 26 26 26 23 23 23
17 13 13 10 13 -0 8 14 14 7 8 11 11 11 10 10 10 2 -2 5 2 -2 -4 -4 -5 0 2 -3 -2 -3 -6 -8 -4 -0 -0 -2 -5 -7 -8 -7 -6 -3 -3 -1 2 3 5 5 5 9 14 15 13 11 10 12 14 17 19 18 18 17 13 11 11 10 10 9 11 11 10 8 7 7 7 7 11 15 18 22 24 25 27 25 24 24
21 20 16 17 10 1 8 12 19 20 20 17 12 11 12 14 10 5 -1 0 4 2 2 2 1 -1 2 -0 -1 -4 -6 -5 -2 -1 -2 -5 -7 -8 -7 -5 -3 -3 -2 0 1 3 4 4 6 10 13 13 11 10 11 12 15 18 18 17 17 14 11 10 10 10 10 9 10 10 10 9 8 9 8 7 8 10 14 18 21 24 25 24 25 25
27 19 14 6 4 11 17 21 16 20 19 17 13 12 12 10 11 10 8 7 4 5 3 1 -2 -2 -2 2 -3 -5 -4 -1 -1 -4 -5 -6 -7 -5 -4 -3 -3 -3 -0 -0 2 3 4 6 8 10 13 11 9 9 10 12 15 18 18 17 15 13 10 9 9 9 8 9 10 11 9 7 7 9 11 10 11 12 13 16 21 25 27 27 24 22
18 14 8 4 2 -2 -1 12 11 20 22 5 3 13 14 13 13 11 12 12 9 6 1 -1 -4 -2 2 0 -4 -5 -3 -2 -5 -6 -6 -6 -4 -4 -3 -3 -2 -2 -1 0 1 2 5 7 10 10 10 10 10 10 12 14 16 17 17 18 16 12 11 10 9 8 8 8 8 7 6 5 6 8 10 11 11 13 14 16 20 21 20 19 18 18
25 24 7 3 -3 -6 -6 -5 -2 2 5 3 8 14 14 12 11 10 6 6 4 4 3 2 1 2 -0 -3 -4 -3 -1 -5 -5 -5 -4 -4 -4 -4 -3 -4 -3 -0 1 1 2 4 7 9 9 8 9 10 11 13 14 16 17 15 15 15 13 11 10 9 8 8 9 8 6 4 3 3 3 4 7 10 12 15 17 17 16 16 17 17 16 15
24 21 3 2 -0 0 2 3 4 9 6 7 7 7 12 13 13 11 11 7 4 4 2 1 1 -2 -3 -3 -2 -1 -4 -6 -7 -6 -5 -5 -5 -4 -4 -4 -2 0 1 2 5 6 7 7 8 8 9 11 14 15 16 16 15 15 15 13 11 9 9 8 8 9 6 4 -0 -1 -1 -1 -1 1 5 9 12 15 15 14 13 13 14 14 13 13
17 16 10 7 4 2 4 6 9 11 7 -0 -1 4 7 14 12 8 8 5 7 1 -5 -2 -3 -2 -2 -3 -2 -2 -4 -5 -5 -5 -5 -5 -4 -4 -5 -3 7 1 3 5 5 6 7 7 7 8 10 12 13 15 16 15 15 13 12 10 10 8 7 8 7 4 0 -3 -4 -4 -2 -2 -0 2 7 10 11 12 11 12 12 13 14 15 14 15
9 11 14 9 9 13 10 7 8 6 -3 -6 -3 1 4 9 9 7 7 5 -1 -1 -5 -3 -3 -2 -2 -2 -1 -3 -6 -6 -5 -5 -5 -4 -4 -5 -4 -2 -0 1 3 5 5 5 5 4 5 7 8 8 13 14 14 13 11 10 9 8 7 7 7 5 3 -2 -5 -6 -6 -4 -2 -0 4 9 10 10 9 9 9 10 11 13 14 16 17 19
18 16 10 11 13 12 8 9 8 -2 -4 -1 5 -1 7 8 7 4 2 -1 -1 -1 -4 -4 -4 -3 -2 -1 -3 -3 -3 -3 -3 -3 -4 -5 -5 -4 -4 -2 -0 2 3 4 3 3 4 4 5 5 5 11 13 12 10 9 7 7 6 6 7 7 6 3 -3 -5 -6 -6 -4 1 4 7 7 4 3 4 5 6 9 11 13 15 16 16 17 18
17 11 12 13 11 9 7 8 3 -2 -2 -3 -5 9 8 1 -2 -2 0 -1 -1 -4 -3 -3 -2 -1 0 -2 -3 -4 -4 -3 -3 -5 -6 -5 -4 -3 -2 -2 2 4 4 3 4 4 3 4 4 3 9 12 11 8 5 3 4 5 5 4 2 2 1 -3 -5 -5 -4 -2 2 5 1 -0 -1 1 2 4 6 8 11 13 12 12 12 14 16 19
11 10 11 9 7 5 3 -1 -1 -3 -3 -1 -2 1 -3 -3 0 -4 -1 -4 -2 -2 -2 -1 -2 -2 -2 -4 -4 -4 -3 -3 -5 -5 -4 -3 -3 -3 -3 0 2 2 2 2 2 4 4 4 3 10 10 9 7 5 4 5 3 1 2 -1 -2 -4 -3 -3 -4 -7 -7 -1 3 1 -3 -4 -3 1 4 6 8 10 12 12 11 11 11 13 15 17
13 13 10 10 6 2 -0 3 -2 -4 -0 4 6 -2 -6 -6 -7 -6 -5 -4 -4 -4 -2 -4 -3 -3 -4 -2 -4 -3 -4 -4 -4 -3 -3 -3 -2 -3 -3 0 0 1 2 4 4 6 5 3 9 10 8 7 5 3 3 3 -1 -2 -3 -6 -6 -4 -5 -6 -6 -7 -8 -7 -4 -3 -4 -3 1 4 5 7 7 9 10 10 10 10 11 13 16 17
12 10 11 8 4 5 6 3 -2 -1 -1 -1 2 4 -3 -8 -7 -5 -5 -5 -4 -4 -0 -2 -4 -5 -5 -6 -6 -7 -7 -5 -3 -2 -1 -1 -3 -3 -3 -1 1 3 4 4 5 5 4 6 9 9 8 5 3 1 2 0 -2 -5 -7 -7 -4 -5 -8 -8 -6 -6 -7 -7 -6 -4 -2 1 3 4 4 3 4 5 7 9 9 10 12 14 17 19
8 9 10 8 8 6 6 1 0 -3 -2 8 5 1 -5 -4 -4 -5 -5 -3 -4 -4 -3 -2 -4 -5 -4 -4 -4 -4 -3 -3 -2 -3 -2 -3 -3 -3 -1 -0 1 1 1 4 5 5 5 9 9 7 4 2 1 -1 -1 1 -3 -7 -7 -5 -8 -11 -9 -7 -7 -7 -7 -6 -4 -1 1 2 2 2 2 3 4 5 6 8 9 10 12 14 16 20
8 6 7 5 6 5 1 -1 -5 -4 -2 13 1 -3 2 -2 -2 -3 -3 -2 -4 -5 -4 -5 -4 -3 -4 -5 -4 -3 -3 -3 -2 -2 -3 -5 -4 -2 -0 -1 0 1 2 3 4 5 6 9 8 6 3 1 -1 -2 -2 -2 -5 -7 -5 -5 -9 -8 -7 -8 -8 -8 -7 -5 -4 -2 -1 0 1 1 2 3 4 6 7 8 9 9 11 14 16 20
4 4 5 4 3 -3 -0 -0 -0 -2 -2 1 -1 -3 -3 -4 -4 -4 -3 -3 -3 -3 -3 -4 -5 -4 -4 -3 -3 -3 -2 -2 -2 -3 -3 -4 -3 -2 -0 -0 0 1 2 3 5 5 5 5 4 1 -0 0 -2 -4 -3 -4 -7 -6 -5 -7 -7 -7 -8 -9 -8 -8 -7 -5 -5 -3 -1 1 2 3 4 4 5 6 7 8 9 9 12 14 16 19
4 2 2 5 2 2 1 -2 -1 -1 -3 0 1 4 1 -1 -2 -3 -3 -2 -4 -1 -1 -2 -3 -4 -4 -4 -3 -3 -1 1 -2 -1 -3 -3 -3 -2 -1 1 0 0 1 3 5 6 5 3 1 1 0 -1 -4 -7 -5 -5 -6 -7 -7 -7 -7 -10 -9 -9 -9 -8 -6 -6 -5 -3 -0 1 2 4 4 5 5 6 6 8 9 10 12 14 16 18
11 7 6 8 6 4 1 -2 -2 -3 -1 -1 1 2 2 -1 1 -2 -2 -3 -3 -1 -1 -2 -4 -4 -4 -4 -5 -3 -0 -2 -3 -1 -3 -4 -3 -2 -1 -0 -1 0 2 4 5 4 3 1 1 0 -0 -3 -5 -6 -6 -5 -5 -7 -7 -8 -9 -9 -9 -9 -9 -7 -6 -5 -4 -2 1 2 3 3 3 4 6 7 7 8 9 11 13 14 16 19
11 11 9 6 -0 3 2 -0 -2 0 1 3 4 -2 -3 0 -1 -2 -7 -8 -1 -0 -1 -1 -3 -3 -4 -5 -3 -1 0 -2 -2 -1 -1 -1 -1 -0 -0 0 0 1 4 5 4 4 2 1 -1 -0 -3 -5 -5 -6 -7 -7 -7 -6 -8 -9 -8 -8 -8 -8 -7 -7 -5 -4 -3 -2 -1 2 2 3 4 5 6 6 7 9 10 11 13 15 18 20
9 9 6 1 5 5 4 1 1 -0 5 5 3 -1 -0 -0 -2 -5 -9 -2 0 -1 -1 -1 -2 -3 -4 -4 -2 -2 -1 -0 -0 1 1 -0 -1 -0 1 1 1 3 4 5 4 7 2 1 1 -2 -3 -3 -4 -6 -6 -7 -8 -8 -8 -7 -7 -7 -6 -6 -6 -5 -4 -3 -1 -1 -1 -1 2 3 4 5 6 7 8 9 10 12 15 17 19 22
9 6 5 4 2 3 3 -1 -1 2 8 4 0 -1 0 -1 -5 -5 0 1 -1 -2 -1 -1 -3 -4 -4 -5 -4 -4 -2 -1 1 1 1 1 0 0 1 2 3 4 5 5 5 4 2 -0 -2 -2 -2 -4 -5 -6 -6 -7 -7 -6 -7 -6 -6 -6 -5 -4 -4 -3 -3 -3 -3 -2 -1 1 2 3 4 6 6 6 7 9 12 16 19 20 22 24
7 3 5 2 4 2 -1 -0 -3 -6 2 0 -1 -1 1 -1 1 4 -1 -2 -1 -2 -1 -1 -2 -3 -3 -4 -3 -2 -2 -1 0 1 2 2 2 2 2 4 5 5 4 3 3 3 1 -0 -1 -2 -4 -3 -5 -6 -6 -6 -6 -4 -5 -5 -6 -4 -3 -2 -2 -3 -2 -2 -1 0 1 2 3 3 4 5 6 7 8 10 13 16 18 21 25 26
9 2 4 6 5 -1 -1 -3 -4 2 -2 0 -3 -0 -3 -3 -1 -1 -2 -4 -2 -1 -1 -2 -2 -2 -2 -2 -2 -1 0 1 2 2 3 3 3 4 4 4 5 5 3 3 4 3 2 -0 -1 -2 -2 -4 -5 -5 -5 -4 -4 -3 -3 -5 -4 -1 0 -2 -3 -1 0 1 0 1 1 2 3 3 4 5 6 7 8 10 13 15 16 20 22 24
9 7 5 4 6 4 1 2 2 1 2 0 -2 -2 -2 -0 1 -0 -2 -2 -2 -1 0 -1 -1 -1 -1 -1 -0 0 1 2 2 3 3 4 4 5 5 5 6 5 5 3 3 4 2 1 -1 -2 -4 -5 -6 -6 -3 -3 -3 -3 -3 -3 -0 1 -1 -1 0 1 0 0 1 1 1 2 2 3 5 6 6 7 8 10 12 13 14 17 19 22
7 7 2 0 6 3 3 3 4 -1 -1 -1 -1 1 -1 -0 -0 -1 -1 -1 1 1 1 0 -1 -2 -1 -0 0 1 2 3 3 4 4 5 5 5 6 6 6 5 4 4 4 4 2 1 -1 -2 -3 -5 -6 -4 -3 -3 -3 -2 -2 -0 0 1 -1 1 1 1 0 1 1 1 2 1 2 3 4 5 6 6 8 9 10 11 13 15 17 20
-1 2 0 2 -0 -0 -2 -2 -2 -1 -0 0 -0 -1 -0 -0 1 1 1 1 1 1 1 -0 -1 -0 1 1 1 2 3 3 4 5 5 7 7 7 7 6 6 5 4 1 2 4 2 1 -1 -2 -3 -6 -5 -4 -4 -2 -1 -0 0 1 1 0 1 1 1 1 0 0 0 1 1 1 1 2 3 4 5 5 6 8 9 10 12 14 16 18
8 2 -0 -1 -1 -2 -3 -1 0 2 2 2 0 -2 -2 0 1 2 3 2 2 2 1 0 1 1 2 2 2 3 4 5 5 5 7 8 8 8 7 7 6 5 3 3 3 4 2 0 -2 -3 -4 -3 -3 -4 -2 -1 -1 -0 0 1 0 1 1 1 1 0 -0 0 0 0 1 1 3 2 2 3 3 4 5 6 7 8 10 12 14 17
5 6 3 0 -2 -1 1 2 2 2 3 1 -0 -0 1 2 2 3 4 3 2 1 0 1 2 3 3 4 4 4 5 6 6 8 8 8 8 7 7 7 6 5 3 2 2 3 2 -0 -2 -3 -3 -3 -4 -3 -2 -2 -1 0 0 0 1 1 1 0 1 1 0 0 0 0 1 1 2 2 2 2 3 4 5 5 7 9 11 13 16 19
5 5 2 4 3 3 2 1 2 2 1 1 0 1 2 3 4 4 4 2 1 1 2 2 2 4 4 4 5 6 6 7 8 8 8 8 8 8 7 6 5 3 2 2 2 2 2 0 -1 -2 -3 -4 -4 -4 -2 -2 -1 -0 0 1 1 1 1 1 0 -0 -1 -0 -0 0 1 1 1 2 2 2 2 3 4 8 13 12 12 13 18 21
2 -0 1 3 3 2 3 3 3 3 2 2 3 3 3 4 4 3 2 1 2 2 2 2 2 2 4 5 6 6 7 7 6 7 8 8 8 7 7 5 3 2 3 1 0 1 1 -1 -2 -3 -4 -4 -4 -3 -3 -1 -1 -1 0 1 1 1 1 1 -0 -1 -1 -1 -1 0 1 1 1 1 2 2 2 3 4 5 7 12 15 17 18 21